C/2020 V2 ( ZTF )

Japanese version
Home page
Updated on June 1, 2021

---------------------------------------------------------------------

* Profile

Discovery Date November 2, 2020
Magnitude 19.0 mag
Discoverer Zwicky Transient Facility

* Pictures

* Orbital Elements

Epoch 2023 May 16.0 TT = JDT 2460080.5
T 2023 May 8.57003 TT                                   Rudenko
q   2.2277656            (2000.0)            P               Q
z  -0.0005197      Peri.  162.43040     +0.69786595     +0.59391957
 +/-0.0000038      Node   212.37152     +0.53387384     -0.05877749
e   1.0011578      Incl.  131.61178     +0.47745349     -0.80237445
From 792 observations 2020 Apr. 18-2021 May 30, mean residual 0".4.

* Finding Charts

* Magnitudes Graph

        m1 = 4.0 + 5 log d + 10.0 log r

---------------------------------------------------------------------

The orbital elements are published on M.P.E.C. 2021-L04.
The charts are made with StellaNavigator Ver.10 (AstroArts).
The magnitudes graphs are made with Comet for Windows.

---------------------------------------------------------------------

Copyright(C) Seiichi Yoshida (comet@aerith.net). All rights reserved.